Tracking 19831 objects as of 23-Aug-2019
HD Live streaming from Space Station
objects crossing your sky now

COSMOS 2251 DEB

Track COSMOS 2251 DEB now!
10-day predictions


NORAD ID: 37084
Int'l Code: 1993-036BFE
Perigee: 538.6 km
Apogee: 734.8 km
Inclination: 74.0 °
Period: 97.3 minutes
Semi major axis: 7007 km
RCS: 0.0049 m2 (small)
Launch date: June 16, 1993
Source: Commonwealth of Independent States (former USSR) (CIS)
Launch site: PLESETSK MISSILE AND SPACE COMPLEX (PKMTR)

Note: This is SATELLITE DEBRIS
aabbcc
Your satellite tracking list
Your tracking list is empty




NASA's NSSDC Master Catalog

Two Line Element Set (TLE):
1 37084U 93036BFE 19234.20189385 +.00000108 +00000-0 +16861-4 0  9993
2 37084 074.0333 061.5429 0139966 027.3591 333.4865 14.79918940320517
Source of the keplerian elements: AFSPC